Regional Weather Roundup
Issued by NWS New Orleans/Baton Rouge, LA

Home | Current Version | Previous Version | Graphics & Text | Print | Product List | Glossary On
Versions: 1 2 3 4 5 6 7 8 9 10 11 12 13 14 15 16 17 18 19 20 21 22 23 24 25 26 27 28 29 30 31 32 33 34 35 36 37 38 39 40 41 42 43 44 45 46 47 48 49 50
088
ASUS44 KLIX 222201
RWRLIX
NEW ORLEANS REGIONAL WEATHER ROUNDUP
NATIONAL WEATHER SERVICE NEW ORLEANS LA
400 PM CST SAT NOV 22 2014

NOTE: "FAIR" INDICATES FEW OR NO CLOUDS BELOW 12,000 FEET WITH NO
      SIGNIFICANT WEATHER AND/OR OBSTRUCTIONS TO VISIBILITY.
      SKY/WX - SKY CONDITION AND SIGNIFICANT WEATHER.
      TMP - AIR TEMPERATURE.     DP    - DEWPOINT TEMPERATURE.
      RH  - RELATIVE HUMIDITY.   PRES  - PRESSURE.
      HI  - HEAT INDEX.          WCI   - WIND CHILL INDEX.

*  THESE STATIONS ARE NOT NWS OR FAA STATIONS AND ARE NOT UNDER
   NWS QUALITY CONTROL.

LAZ038-040-048-061>063-065>067-069-222300-
SOUTHEAST LOUISIANA

CITY           SKY/WX    TMP DP  RH WIND       PRES   REMARKS
N.O. AUDUBON     N/A     67  62  84 MISG        N/A
N.O. INTL ARPT CLOUDY    66  59  78 E7        30.06F
N.O. LAKEFRONT CLOUDY    62  57  83 E12       30.08R
N.O. DOWNTOWN* MOCLDY    63  55  77 NE5       30.08S
SLIDELL        CLOUDY    64  56  75 VRB6      30.08F
BATON ROUGE    CLOUDY    66  58  75 E14       30.03F
BOOTHVILLE     CLOUDY    66  64  93 E8        30.06R
BELLE CHASSE   CLOUDY    66  59  78 E12       30.06S
BOGALUSA*      NOT AVBL
NEW ROADS*     NOT AVBL
GONZALES*      NOT AVBL
HAMMOND*       NOT AVBL
HOUMA*         PTSUNNY   68  63  83 E16       30.04F
PORT FOURCHON* PTCLDY    68  64  88 E8        30.07R

$$

MSZ070-080>082-222300-
SOUTHERN MISSISSIPPI

CITY           SKY/WX    TMP DP  RH WIND       PRES   REMARKS
MCCOMB         PTSUNNY   66  54  65 SE8       30.06F
GULFPORT       CLOUDY    65  58  78 E10       30.09S
BILOXI         CLOUDY    65  58  78 E12       30.09R
PASCAGOULA     CLOUDY    65  58  78 E10       30.09S

$$

COASTAL OBSERVATIONS
LAKE AND NEARSHORE STATIONS

STATION/POSITION TIME  TEMP    WIND        PRES    WAVE
                       AIR SEA DIR/SP/G            HT/PER
                 (UTC) (F)     (DEG/KT/KT) (MB)    (FT/S)
PASCAGOULA       2100   63      70/ 17/ 21 1018.5
WAVELAND YACHT   2100   63     100/ 15/ 19 1017.6
GRAND ISLE       2100   67 61  100/  8/ 11 1017.7
SOUTHWEST PASS   2100   70 71              1017.4
NEW CANAL        2100   59 55   70/  8/ 10 1018.7
SHELL BEACH      2100   61 53   50/  8/  9 1017.9

OFFSHORE STATIONS

STATION/POSITION TIME  TEMP    WIND        PRES    WAVE
                       AIR SEA DIR/SP/G            HT/PER
                 (UTC) (F)     (DEG/KT/KT) (MB)    (FT/S)
64 S DAUPHIN ISL 2104   70 73  100/ 21/ 25 1017.8    6/ 8

$$




USA.gov is the U.S. government's official web portal to all federal, state and local government web resources and services.